Date String (YYYY-MM-DD hh:mm:ss) UTC,Instrument flags,absolute air pressure of the measurement (hPa),sample flow rate (lpm),inlet stack bypass flow (lpm),air temperature of the measurement (°C),ambient temperature measured by the external sensor (°C),aerosol sample conditioner tube jacket temperature (°C),OPC LED temperature (°C),internal box temperature (°C),relative humidity of the measurement (%),span deviation,mass concentration of particles derived from Lorenz-Mie calculation of OPC scattering (μg/m³),mass concentration of particles derived from Lorenz-Mie calculation of OPC scattering (μg/m³),mass concentration of particles derived from Lorenz-Mie calculation of OPC scattering (μg/m³)
DateTimeUTC,F1_M11,P_M11,Q1_M11,Q2_M11,T1_M11,T2_M11,T3_M11,T4_M11,T5_M11,U1_M11,ZSPAN_M11,X2_M11,X0_M11,X1_M11
2023-10-18 17:00:00,SystemResetWarning,0832.6,5.00,000.00,028.6,025.4,000.0,037.2,030.1,15.6,0000.0,0004.40,0017.09,0002.85
2023-10-18 17:01:00,SystemResetWarning,0832.7,5.00,000.00,028.6,025.8,000.0,037.2,030.1,15.8,0000.0,0004.40,0017.32,0002.85
2023-10-18 17:02:00,SystemResetWarning,0832.7,4.99,000.00,028.6,026.1,000.0,037.2,030.2,15.8,0000.0,0004.41,0017.24,0002.84
2023-10-18 17:03:00,SystemResetWarning,0832.7,5.00,000.00,028.6,026.4,000.0,037.2,030.2,15.8,0000.0,0004.40,0017.11,0002.83
2023-10-18 17:04:00,SystemResetWarning,0832.7,5.00,000.00,028.6,026.7,000.0,037.2,030.3,15.8,0000.0,0004.42,0016.46,0002.84
2023-10-18 17:05:00,SystemResetWarning,0832.8,5.00,000.00,028.6,026.9,000.0,037.2,030.3,15.8,0000.0,0004.44,0016.56,0002.87
2023-10-18 17:06:00,SystemResetWarning,0832.8,5.00,000.00,028.7,027.0,000.0,037.2,030.3,15.6,0000.0,0004.43,0015.71,0002.90
2023-10-18 17:07:00,SystemResetWarning,0832.9,5.01,000.00,028.7,027.2,000.0,037.2,030.4,15.6,0000.0,0004.45,0015.58,0002.93
2023-10-18 17:08:00,SystemResetWarning,0832.9,5.00,000.00,028.7,027.3,000.0,037.2,030.4,15.4,0000.0,0004.50,0015.99,0002.96
2023-10-18 17:09:00,SystemResetWarning,0832.9,4.98,000.00,028.7,027.4,000.0,037.2,030.4,15.5,0000.0,0004.53,0016.43,0002.97
2023-10-18 17:10:00,SystemResetWarning,0832.9,5.01,000.00,028.8,027.5,000.0,037.2,030.5,15.5,0000.0,0004.59,0016.99,0002.98
2023-10-18 17:11:00,SystemResetWarning,0832.8,5.01,000.00,028.8,027.6,000.0,037.2,030.5,15.4,0000.0,0004.61,0015.18,0002.99
2023-10-18 17:12:00,SystemResetWarning,0832.8,4.99,000.00,028.8,027.7,000.0,037.2,030.6,15.3,0000.0,0004.61,0015.27,0003.00
2023-10-18 17:13:00,SystemResetWarning,0832.7,4.99,000.00,028.9,027.7,000.0,037.3,030.6,15.2,0000.0,0004.61,0014.85,0003.01
2023-10-18 17:14:00,SystemResetWarning,0832.8,5.01,000.00,028.9,027.8,000.0,037.3,030.6,15.2,0000.0,0004.58,0015.46,0003.00
2023-10-18 17:15:00,SystemResetWarning,0832.7,5.01,000.00,028.9,027.8,000.0,037.3,030.7,15.3,0000.0,0004.57,0016.27,0002.98
2023-10-18 17:16:00,SystemResetWarning,0832.6,4.98,000.00,028.9,027.5,000.0,037.3,030.7,15.4,0000.0,0004.55,0017.62,0002.97
2023-10-18 17:17:00,SystemResetWarning,0832.7,5.00,000.00,028.9,025.7,000.0,037.2,030.5,15.4,0000.0,0004.52,0019.47,0002.95
2023-10-18 17:18:00,SystemResetWarning,0832.7,5.00,000.00,028.8,024.4,000.0,037.2,030.3,15.4,0000.0,0004.46,0019.14,0002.95
2023-10-18 17:19:00,SystemResetWarning,0832.7,5.01,000.00,028.7,024.4,000.0,037.1,030.2,15.5,0000.0,0004.43,0019.04,0002.96
2023-10-18 17:20:00,SystemResetWarning,0832.7,5.01,000.00,028.6,024.7,000.0,037.1,030.0,15.7,0000.0,0004.37,0018.52,0002.97
2023-10-18 17:21:00,SystemResetWarning,0832.8,4.99,000.00,028.5,025.2,000.0,037.1,030.0,15.8,0000.0,0004.34,0018.20,0002.97
2023-10-18 17:22:00,SystemResetWarning,0832.8,4.99,000.00,028.5,025.6,000.0,037.1,030.0,15.8,0000.0,0004.38,0019.83,0002.96
2023-10-18 17:23:00,SystemResetWarning,0832.8,5.00,000.00,028.5,025.9,000.0,037.1,030.1,15.9,0000.0,0004.40,0019.85,0002.97
2023-10-18 17:24:00,SystemResetWarning,0832.7,5.00,000.00,028.5,026.2,000.0,037.1,030.1,15.9,0000.0,0004.40,0021.14,0002.99
2023-10-18 17:25:00,SystemResetWarning,0832.6,5.01,000.00,028.5,026.5,000.0,037.1,030.2,15.9,0000.0,0004.47,0021.34,0003.02
2023-10-18 17:26:00,SystemResetWarning,0832.7,5.01,000.00,028.5,026.7,000.0,037.1,030.2,15.8,0000.0,0004.47,0020.12,0003.03
2023-10-18 17:27:00,SystemResetWarning,0832.7,4.99,000.00,028.5,026.9,000.0,037.1,030.3,15.9,0000.0,0004.45,0019.18,0003.01
2023-10-18 17:28:00,SystemResetWarning,0832.7,5.00,000.00,028.6,027.0,000.0,037.1,030.3,15.9,0000.0,0004.48,0016.92,0003.02
2023-10-18 17:29:00,SystemResetWarning,0832.7,5.00,000.00,028.6,027.2,000.0,037.1,030.3,15.9,0000.0,0004.53,0016.82,0003.02
2023-10-18 17:30:00,SystemResetWarning,0832.7,5.00,000.00,028.6,027.3,000.0,037.1,030.4,15.9,0000.0,0004.58,0016.61,0003.01
2023-10-18 17:31:00,SystemResetWarning,0832.7,5.00,000.00,028.7,027.4,000.0,037.1,030.4,15.7,0000.0,0004.60,0016.66,0002.99
2023-10-18 17:32:00,SystemResetWarning,0832.7,5.00,000.00,028.7,027.5,000.0,037.1,030.5,15.6,0000.0,0004.58,0016.53,0002.97
2023-10-18 17:33:00,SystemResetWarning,0832.7,5.00,000.00,028.7,027.6,000.0,037.1,030.5,15.6,0000.0,0004.54,0015.22,0002.98
2023-10-18 17:34:00,SystemResetWarning,0832.7,5.00,000.00,028.8,027.6,000.0,037.1,030.5,15.6,0000.0,0004.49,0015.92,0003.00
2023-10-18 17:35:00,SystemResetWarning,0832.8,5.00,000.00,028.8,027.7,000.0,037.2,030.6,15.5,0000.0,0004.49,0015.76,0003.02
2023-10-18 17:36:00,SystemResetWarning,0832.8,5.00,000.00,028.8,027.8,000.0,037.2,030.6,15.5,0000.0,0004.44,0015.39,0003.01
2023-10-18 17:37:00,SystemResetWarning,0832.9,5.00,000.00,028.9,027.8,000.0,037.2,030.6,15.3,0000.0,0004.41,0015.40,0003.03
2023-10-18 17:38:00,SystemResetWarning,0833.1,4.99,000.00,028.9,027.8,000.0,037.2,030.7,15.3,0000.0,0004.46,0015.86,0003.06
2023-10-18 17:39:00,SystemResetWarning,0832.9,4.99,000.00,028.9,026.5,000.0,037.2,030.6,15.3,0000.0,0004.47,0016.28,0003.06
2023-10-18 17:40:00,SystemResetWarning,0832.8,5.00,000.00,028.8,024.6,000.0,037.1,030.3,15.5,0000.0,0004.48,0018.02,0003.07
2023-10-18 17:41:00,SystemResetWarning,0832.7,5.00,000.00,028.7,024.4,000.0,037.0,030.2,15.5,0000.0,0004.43,0018.18,0003.08
2023-10-18 17:42:00,SystemResetWarning,0832.7,5.02,000.00,028.6,024.6,000.0,037.0,030.0,15.7,0000.0,0004.41,0018.28,0003.10
2023-10-18 17:43:00,SystemResetWarning,0832.7,5.00,000.00,028.5,025.0,000.0,037.1,030.0,15.7,0000.0,0004.38,0019.32,0003.10
2023-10-18 17:44:00,SystemResetWarning,0832.7,5.00,000.00,028.5,025.4,000.0,037.1,030.0,16.0,0000.0,0004.47,0019.96,0003.10
2023-10-18 17:45:00,SystemResetWarning,0832.7,5.00,000.00,028.5,025.8,000.0,037.1,030.1,15.8,0000.0,0004.47,0019.75,0003.10
2023-10-18 17:46:00,SystemResetWarning,0832.8,5.00,000.00,028.5,026.1,000.0,037.0,030.1,15.7,0000.0,0004.43,0017.83,0003.11
2023-10-18 17:47:00,SystemResetWarning,0832.8,5.00,000.00,028.5,026.4,000.0,037.0,030.1,15.6,0000.0,0004.48,0017.51,0003.09
2023-10-18 17:48:00,SystemResetWarning,0832.8,5.00,000.00,028.5,026.6,000.0,037.0,030.2,15.6,0000.0,0004.52,0017.64,0003.07
2023-10-18 17:49:00,SystemResetWarning,0832.9,5.00,000.00,028.5,026.8,000.0,037.0,030.3,15.7,0000.0,0004.55,0018.64,0003.06
2023-10-18 17:50:00,SystemResetWarning,0832.8,4.99,000.00,028.5,027.0,000.0,037.0,030.3,15.6,0000.0,0004.51,0018.75,0003.06
2023-10-18 17:51:00,SystemResetWarning,0832.8,4.99,000.00,028.6,027.2,000.0,037.1,030.4,15.6,0000.0,0004.48,0016.84,0003.05
2023-10-18 17:52:00,SystemResetWarning,0832.8,5.01,000.00,028.6,027.3,000.0,037.1,030.4,15.6,0000.0,0004.45,0016.99,0003.03
2023-10-18 17:53:00,SystemResetWarning,0833.2,5.00,000.00,028.6,027.4,000.0,037.1,030.4,15.6,0000.0,0004.39,0016.61,0003.01
2023-10-18 17:54:00,SystemResetWarning,0833.4,5.00,000.00,028.7,027.5,000.0,037.1,030.5,15.5,0000.0,0004.42,0016.57,0003.01
2023-10-18 17:55:00,SystemResetWarning,0833.4,5.00,000.00,028.7,027.6,000.0,037.1,030.5,15.4,0000.0,0004.39,0017.27,0003.02
2023-10-18 17:56:00,SystemResetWarning,0833.3,5.01,000.00,028.8,027.7,000.0,037.1,030.6,15.3,0000.0,0004.44,0018.46,0002.98
2023-10-18 17:57:00,SystemResetWarning,0833.4,4.99,000.00,028.8,027.8,000.0,037.2,030.6,15.3,0000.0,0004.47,0018.98,0002.94
2023-10-18 17:58:00,SystemResetWarning,0833.0,4.99,000.00,028.8,027.6,000.0,037.2,030.6,15.0,0000.0,0004.49,0019.07,0002.95
2023-10-18 17:59:00,SystemResetWarning,0833.1,5.00,000.00,028.8,026.0,000.0,037.1,030.5,14.9,0000.0,0004.49,0018.17,0002.94
